THOR AGENA B DEB, 2092

Orbit data source: Space-Track

THOR AGENA B DEB, 2092 is space debris in LEO originally from a launch on Mon, 29 Nov 1965 UTC launched from the Air Force Western Test Range (AFWTR). Debris objects in space refer to the collection of defunct objects orbiting the Earth. Examples of debris include non-operational satellites, rocket bodies, and fragments generated from explosions, collisions, or faulty payload assembly.

Loading next visibility...
THOR AGENA B DEB details
Identifier
2092, 1965-098H
Orbit
LEO
Last TLE update18 hours ago
Origin
Flag of USGSFC (US)
ManufacturerUnknown
MissionSpacecraft
Bus & MotorUnknown
Mass~1 kg wet, ~1 kg dry
Launch date (UTC)
1965-11-29 (59 years ago)
Launch vehicleUnknown
Launch site
Air Force Western Test Range (AFWTR)
Object type
Payload
Rocket body
Debris
Shape & HBRAnn Cyl, 0.2 m
Radar Cross Section0.031 m², Small (<0.1 m²)

Expand to show TLE details & history

TLE from 18 hours ago
0 THOR AGENA B DEB
1 02092U 65098H   24355.76377363  .00002920  00000-0  95214-3 0  9999
2 02092  79.8610 104.8485 1304914 141.7866 228.3429 12.33346297613371
Epoch: 2024-12-20T18:19Z
Definitive object data (Epoch: 2024-12-20T18:19:50.041Z)
Latitude
Longitude100.06539°
Altitude2,290.242 km
Speed6.452 km/s
True Right ascension06h 59m 23s
True Declination0° 00' 00"
Sunlit
Object was in full shadow at TLE epoch
Visualization TLE readout
Latitude17.88359°
Longitude-83.87449°
Altitude560.438 km
Speed8.037 km/s
Apparent Right ascension20h 46m 28s
Apparent Declination-11° 56' 35"
Sunlit
Object is in daylight
Visualization observer readout
Local Sidereal Time11:40:32
Azimuth66.243° ENE
Elevation-42.605°
Doppler factor1
Orbital elements
Apogee altitude2,564.602 km
Perigee altitude500.1 km
Semi-major axis7,910.488 km
Eccentricity0.1304914
Inclination79.861°
RAAN104.8485°
Arg. of periapsis141.7866°
True anomaly218.31777°
Mean anomaly228.3429°
Eccentric anomaly223.22266°
Mean motion3.08488 °/min
BSTAR0.00095214
Orbital period116.7 mins
Loading maneuver chart data...
Loading historical data...
Loading historical data...
Loading historical data...
Loading historical data...
Loading historical data...
Loading historical data...
Loading historical data...

THOR AGENA B DEB Visibility forecast

Observer location: undefined°, undefined

Span
Click to sort rows by Start time (UTC) header in descending order
Start Az.
Max El. time (UTC)
Max El. Az.
Max El.
End time (UTC)
End Az.
4 mins2024-12-21 18:20:42.110Z30.363° NE2024-12-21 18:22:42.110Z68.036° E17.073°2024-12-21 18:24:42.110Z107.226° ESE
15 mins2024-12-22 07:24:42.110Z161.38° S2024-12-22 07:33:42.110Z91.014° ESE36.654°2024-12-22 07:39:42.110Z28.279° NE
15 mins2024-12-22 09:22:42.110Z223.549° SW2024-12-22 09:31:42.110Z287.916° WNW31.206°2024-12-22 09:37:42.110Z349.164° N
|